When you browse on this site, cookies collect data to enhance your experience and personalize the content and advertising you see.
Visit our Privacy Policy to learn more. By continuing to use the site, you agree to this use of cookies and data.
  • Em Portugal
  • Lista de países
  • Para 7 dias
  • Temperatura da água
  • Mapas de satélite
  • Mapa do tempo
  • Widgets de tempo
  • user-avatar
    Iniciar Sessão

    Previsão horária em Gielczyn

    Hoje, 18 Junho, Terça-feira

    Tempo Temperatura Precipitação Vento Pressão Humidade
    00:00 +14°C° 0 mm 2 m/s 756 mmHg 82%
    01:00 +13°C° 0 mm 2 m/s 756 mmHg 83%
    02:00 +13°C° 0 mm 2 m/s 756 mmHg 84%
    03:00 +13°C° 0 mm 2 m/s 756 mmHg 85%
    04:00 +12°C° 0 mm 1 m/s 756 mmHg 86%
    05:00 +14°C° 0 mm 1 m/s 756 mmHg 82%
    06:00 +16°C° 0 mm 2 m/s 756 mmHg 77%
    07:00 +18°C° 0 mm 2 m/s 757 mmHg 72%
    08:00 +19°C° 0 mm 2 m/s 757 mmHg 68%
    09:00 +21°C° 0 mm 2 m/s 756 mmHg 63%
    10:00 +23°C° 0 mm 2 m/s 756 mmHg 59%
    11:00 +23°C° 0 mm 2 m/s 756 mmHg 57%
    12:00 +24°C° 0 mm 2 m/s 756 mmHg 55%
    13:00 +25°C° 0 mm 2 m/s 755 mmHg 53%
    14:00 +25°C° 0 mm 2 m/s 755 mmHg 55%
    15:00 +25°C° 0 mm 3 m/s 755 mmHg 57%
    16:00 +25°C° 0 mm 3 m/s 754 mmHg 59%
    17:00 +24°C° 0 mm 3 m/s 754 mmHg 64%
    18:00 +22°C° 0 mm 3 m/s 754 mmHg 70%
    19:00 +20°C° 0 mm 2 m/s 753 mmHg 75%
    20:00 +19°C° 0 mm 2 m/s 753 mmHg 77%
    21:00 +18°C° 0 mm 3 m/s 754 mmHg 78%
    22:00 +17°C° 0 mm 3 m/s 754 mmHg 79%
    23:00 +17°C° 0 mm 3 m/s 753 mmHg 80%

    Amanhã, 19 Junho, Quarta-feira

    Tempo Temperatura Precipitação Vento Pressão Humidade
    00:00 +16°C° 0 mm 3 m/s 753 mmHg 81%
    01:00 +16°C° 0 mm 3 m/s 753 mmHg 82%
    02:00 +16°C° 0 mm 3 m/s 753 mmHg 85%
    03:00 +16°C° 0 mm 3 m/s 753 mmHg 87%
    04:00 +16°C° 0 mm 3 m/s 752 mmHg 90%
    05:00 +17°C° 0 mm 3 m/s 752 mmHg 87%
    06:00 +19°C° 0 mm 4 m/s 752 mmHg 84%
    07:00 +21°C° 0 mm 4 m/s 752 mmHg 82%
    08:00 +22°C° 0.3 mm 5 m/s 752 mmHg 78%
    09:00 +23°C° 0.3 mm 5 m/s 751 mmHg 75%
    10:00 +25°C° 0.3 mm 5 m/s 751 mmHg 72%
    11:00 +26°C° 0.1 mm 5 m/s 751 mmHg 70%
    12:00 +27°C° 0.1 mm 5 m/s 750 mmHg 67%
    13:00 +27°C° 0.1 mm 5 m/s 750 mmHg 64%
    14:00 +27°C° 0.8 mm 5 m/s 749 mmHg 67%
    15:00 +27°C° 0.8 mm 4 m/s 749 mmHg 70%
    16:00 +27°C° 0.8 mm 3 m/s 749 mmHg 73%
    17:00 +26°C° 0.8 mm 3 m/s 749 mmHg 77%
    18:00 +25°C° 0.8 mm 3 m/s 748 mmHg 81%
    19:00 +24°C° 0.8 mm 2 m/s 748 mmHg 85%
    20:00 +23°C° 0 mm 2 m/s 748 mmHg 87%
    21:00 +21°C° 0 mm 2 m/s 748 mmHg 89%
    22:00 +20°C° 0 mm 2 m/s 748 mmHg 91%
    23:00 +20°C° 0 mm 2 m/s 748 mmHg 91%

    Depois de amanhã, 20 Junho, Quinta-feira

    Tempo Temperatura Precipitação Vento Pressão Humidade
    00:00 +21°C° 0 mm 1 m/s 748 mmHg 91%
    01:00 +20°C° 0 mm 1 m/s 748 mmHg 91%
    02:00 +20°C° 0 mm 1 m/s 748 mmHg 91%
    03:00 +20°C° 0 mm 1 m/s 748 mmHg 91%
    04:00 +20°C° 0 mm 1 m/s 748 mmHg 91%
    05:00 +19°C° 0 mm 0 m/s 748 mmHg 87%
    06:00 +21°C° 0 mm 0 m/s 748 mmHg 83%
    07:00 +22°C° 0 mm 0 m/s 748 mmHg 79%
    08:00 +26°C° 0.1 mm 1 m/s 748 mmHg 74%
    09:00 +27°C° 0.1 mm 1 m/s 748 mmHg 68%
    10:00 +28°C° 0.1 mm 1 m/s 748 mmHg 63%
    11:00 +29°C° 0 mm 1 m/s 748 mmHg 59%
    12:00 +29°C° 0 mm 1 m/s 748 mmHg 55%
    13:00 +30°C° 0 mm 1 m/s 748 mmHg 51%
    14:00 +30°C° 0 mm 1 m/s 748 mmHg 51%
    15:00 +30°C° 0 mm 1 m/s 748 mmHg 51%
    16:00 +30°C° 0 mm 1 m/s 748 mmHg 51%
    17:00 +29°C° 0 mm 1 m/s 748 mmHg 57%
    18:00 +28°C° 0 mm 1 m/s 748 mmHg 62%
    19:00 +24°C° 0 mm 0 m/s 748 mmHg 67%
    20:00 +25°C° 0 mm 1 m/s 748 mmHg 69%
    21:00 +24°C° 0 mm 1 m/s 748 mmHg 71%
    22:00 +23°C° 0 mm 1 m/s 748 mmHg 74%
    23:00 +22°C° 0 mm 1 m/s 748 mmHg 75%

    21 Junho, Sexta-feira

    Tempo Temperatura Precipitação Vento Pressão Humidade
    00:00 +22°C° 0 mm 1 m/s 748 mmHg 76%
    01:00 +21°C° 0 mm 1 m/s 748 mmHg 77%
    02:00 +21°C° 0 mm 1 m/s 748 mmHg 79%
    03:00 +21°C° 0 mm 1 m/s 748 mmHg 81%
    04:00 +19°C° 0 mm 0 m/s 749 mmHg 83%
    05:00 +20°C° 0 mm 0 m/s 749 mmHg 79%
    06:00 +22°C° 0 mm 0 m/s 749 mmHg 76%
    07:00 +26°C° 0 mm 1 m/s 749 mmHg 72%
    08:00 +27°C° 0.6 mm 1 m/s 749 mmHg 68%
    09:00 +28°C° 0.6 mm 1 m/s 749 mmHg 64%
    10:00 +29°C° 0.6 mm 2 m/s 749 mmHg 60%
    11:00 +29°C° 0.6 mm 1 m/s 749 mmHg 58%
    12:00 +29°C° 0.6 mm 1 m/s 749 mmHg 57%
    13:00 +30°C° 0.6 mm 1 m/s 749 mmHg 56%
    14:00 +28°C° 0.9 mm 2 m/s 748 mmHg 63%
    15:00 +27°C° 0.9 mm 4 m/s 748 mmHg 71%
    16:00 +26°C° 0.9 mm 5 m/s 748 mmHg 79%
    17:00 +23°C° 4 mm 5 m/s 749 mmHg 84%
    18:00 +22°C° 4 mm 4 m/s 749 mmHg 89%
    19:00 +21°C° 4 mm 3 m/s 749 mmHg 94%
    20:00 +20°C° 2.1 mm 4 m/s 749 mmHg 94%
    21:00 +19°C° 2.1 mm 4 m/s 750 mmHg 94%
    22:00 +17°C° 2.1 mm 5 m/s 750 mmHg 95%
    23:00 +18°C° 0.1 mm 4 m/s 750 mmHg 94%

    22 Junho, Sábado

    Tempo Temperatura Precipitação Vento Pressão Humidade
    00:00 +17°C° 0.1 mm 4 m/s 751 mmHg 94%
    01:00 +17°C° 0.1 mm 4 m/s 751 mmHg 93%
    02:00 +17°C° 0 mm 4 m/s 751 mmHg 94%
    03:00 +15°C° 0 mm 4 m/s 751 mmHg 95%
    04:00 +15°C° 0 mm 4 m/s 752 mmHg 96%
    05:00 +17°C° 0 mm 4 m/s 752 mmHg 93%
    06:00 +17°C° 0 mm 4 m/s 753 mmHg 91%
    07:00 +17°C° 0 mm 4 m/s 753 mmHg 88%
    08:00 +19°C° 0 mm 4 m/s 753 mmHg 83%
    09:00 +20°C° 0 mm 4 m/s 754 mmHg 79%
    10:00 +21°C° 0 mm 4 m/s 754 mmHg 74%
    11:00 +22°C° 0 mm 4 m/s 754 mmHg 71%
    12:00 +22°C° 0 mm 4 m/s 754 mmHg 68%
    13:00 +23°C° 0 mm 5 m/s 754 mmHg 65%
    14:00 +23°C° 0 mm 5 m/s 754 mmHg 65%
    15:00 +22°C° 0 mm 5 m/s 754 mmHg 65%
    16:00 +22°C° 0 mm 5 m/s 754 mmHg 65%
    17:00 +21°C° 0 mm 4 m/s 755 mmHg 70%
    18:00 +20°C° 0 mm 4 m/s 755 mmHg 74%
    19:00 +19°C° 0 mm 3 m/s 755 mmHg 78%
    20:00 +17°C° 0 mm 3 m/s 755 mmHg 80%
    21:00 +16°C° 0 mm 3 m/s 755 mmHg 82%
    22:00 +13°C° 0 mm 3 m/s 756 mmHg 83%
    23:00 +13°C° 0 mm 3 m/s 756 mmHg 86%

    23 Junho, Domingo

    Tempo Temperatura Precipitação Vento Pressão Humidade
    00:00 +13°C° 0 mm 3 m/s 756 mmHg 89%
    01:00 +12°C° 0 mm 3 m/s 756 mmHg 91%
    02:00 +12°C° 0 mm 3 m/s 756 mmHg 90%
    03:00 +12°C° 0 mm 3 m/s 756 mmHg 89%
    04:00 +12°C° 0 mm 3 m/s 756 mmHg 88%
    05:00 +13°C° 0 mm 3 m/s 756 mmHg 84%
    06:00 +14°C° 0 mm 3 m/s 756 mmHg 80%
    07:00 +16°C° 0 mm 3 m/s 756 mmHg 76%
    08:00 +17°C° 0 mm 3 m/s 756 mmHg 69%
    09:00 +19°C° 0 mm 3 m/s 756 mmHg 62%
    10:00 +20°C° 0 mm 2 m/s 756 mmHg 55%
    11:00 +21°C° 0 mm 2 m/s 756 mmHg 52%
    12:00 +23°C° 0 mm 2 m/s 755 mmHg 50%
    13:00 +24°C° 0 mm 2 m/s 755 mmHg 47%
    14:00 +24°C° 0 mm 2 m/s 755 mmHg 49%
    15:00 +22°C° 0 mm 3 m/s 755 mmHg 51%
    16:00 +22°C° 0 mm 3 m/s 754 mmHg 53%
    17:00 +21°C° 0 mm 3 m/s 754 mmHg 60%
    18:00 +20°C° 0 mm 3 m/s 754 mmHg 68%
    19:00 +19°C° 0 mm 3 m/s 755 mmHg 75%
    20:00 +17°C° 0 mm 3 m/s 755 mmHg 78%
    21:00 +16°C° 0 mm 3 m/s 755 mmHg 81%
    22:00 +14°C° 0 mm 3 m/s 755 mmHg 84%
    23:00 +13°C° 0 mm 3 m/s 755 mmHg 87%
    Mostrar mais